User: anonymous   Login
Location: Unspecified
(0.0000°N, 0.0000°E)
Time: 21:29:41
(UTC+00:00)
Language:

GALASSIA - Orbit

View from above orbital plane
View from above orbital plane
View from above satellite
View from above satellite

Ground track
Ground track

The orbit data is extracted from the following two-line orbital elements,

1 41170U 15077E   18344.07082242  .00001638  00000-0  51337-4 0  9999
2 41170  14.9874 166.4583 0013105 346.3372  13.6594 15.13536139165118
Epoch (UTC): 10 December 2018 01:41:59
Eccentricity: 0.0013105
inclination: 14.9874°
perigee height: 516 km
apogee height: 534 km
right ascension of ascending node: 166.4583°
argument of perigee: 346.3372°
revolutions per day: 15.13536139
mean anomaly at epoch: 13.6594°
orbit number at epoch: 16511

The dashed part of the orbit path shows where the satellite is in the earth's shadow,  

DLR